Location: Peebles
(55.6412°N, 3.1714°W)
Time: 04:43:13
(UTC+01:00)

FENGYUN 1C DEB - Pass Details

Date: 06 July 2022
Orbit: 759 x 832 km, 99.1° (Epoch: 14 August)

Event Time Altitude Azimuth Distance (km) Brightness Sun altitude
Rises 01:02:26 0° 93° (E) 3,343 ? -11.6°
Reaches altitude 10° 01:06:05 10° 67° (ENE) 2,398 ? -11.6°
Maximum altitude 01:08:25 13° 41° (NE) 2,177 ? -11.6°
Drops below altitude 10° 01:10:44 10° 14° (NNE) 2,381 ? -11.6°
Sets 01:14:19 0° 349° (NNW) 3,297 ? -11.6°
